Location: Cheyres
(46.8153°N, 6.7877°E)
Time: 05:06:25
(UTC+00:00)

Cosmos 1328 Rocket - Pass Details

Date: 22 September 2021
Orbit: 601 x 627 km, 82.5° (Epoch: 15 October)

Event Time Altitude Azimuth Distance (km) Brightness Sun altitude
Exits shadow 03:55:42 21° 223° (SW) 1,364 4.8 -15.0°
Maximum altitude 03:58:10 43° 284° (WNW) 863 3.9 -14.6°
Drops below altitude 10° 04:02:19 10° 356° (N) 1,963 6.3 -13.9°
Sets 04:04:38 0° 4° (N) 2,868 7.2 -13.5°
